TimeEST,TemperatureF,Dew PointF,Humidity,Sea Level PressureIn,VisibilityMPH,Wind Direction,Wind SpeedMPH,Gust SpeedMPH,PrecipitationIn,Events,Conditions,WindDirDegrees,DateUTC
12:00 AM,50.0,50.0,100,30.01,-9999.0,Calm,Calm,-,N/A,,Overcast,0,2012-12-09 05:00:00
1:00 AM,50.0,48.9,96,30.02,-9999.0,West,4.6,-,N/A,,Overcast,280,2012-12-09 06:00:00
2:00 AM,48.9,48.9,100,30.04,-9999.0,Calm,Calm,-,N/A,,Overcast,0,2012-12-09 07:00:00
2:47 AM,48.2,48.2,100,30.05,-9999.0,Calm,Calm,-,N/A,,Overcast,0,2012-12-09 07:47:00
3:00 AM,48.9,48.9,100,30.06,-9999.0,Calm,Calm,-,N/A,,Overcast,0,2012-12-09 08:00:00
3:21 AM,48.2,48.2,100,30.07,-9999.0,West,4.6,-,N/A,,Overcast,280,2012-12-09 08:21:00
4:00 AM,48.9,48.9,100,30.08,-9999.0,Calm,Calm,-,N/A,,Overcast,0,2012-12-09 09:00:00
5:00 AM,48.9,48.0,97,30.10,-9999.0,Calm,Calm,-,N/A,,Overcast,0,2012-12-09 10:00:00
6:00 AM,48.2,48.2,100,30.12,-9999.0,Calm,Calm,-,N/A,,Overcast,0,2012-12-09 11:00:00
6:08 AM,48.2,46.4,93,30.13,-9999.0,Calm,Calm,-,N/A,,Overcast,0,2012-12-09 11:08:00
7:00 AM,48.9,46.9,93,30.15,-9999.0,Variable,3.5,-,N/A,,Overcast,0,2012-12-09 12:00:00
8:00 AM,48.0,45.0,89,30.18,-9999.0,NE,4.6,-,N/A,Rain,Rain,50,2012-12-09 13:00:00
9:00 AM,48.0,46.0,93,30.20,-9999.0,NE,5.8,-,N/A,,Overcast,50,2012-12-09 14:00:00
9:41 AM,48.2,46.4,93,30.23,-9999.0,Variable,3.5,-,N/A,Rain,Light Rain,0,2012-12-09 14:41:00
10:00 AM,48.0,46.0,93,30.22,-9999.0,ENE,5.8,-,N/A,Rain,Light Rain,60,2012-12-09 15:00:00
11:00 AM,48.0,46.0,93,30.21,-9999.0,ENE,10.4,-,N/A,Rain,Rain,60,2012-12-09 16:00:00
11:24 AM,48.2,46.4,93,30.21,-9999.0,NE,4.6,-,N/A,Rain,Light Rain,50,2012-12-09 16:24:00
12:00 PM,46.9,45.0,93,30.20,-9999.0,ENE,9.2,-,N/A,Rain,Light Rain,60,2012-12-09 17:00:00
12:32 PM,46.4,44.6,93,30.19,-9999.0,ENE,10.4,-,N/A,Rain,Light Rain,60,2012-12-09 17:32:00
12:34 PM,46.4,44.6,93,30.18,-9999.0,ENE,8.1,-,N/A,Rain,Light Rain,60,2012-12-09 17:34:00
12:43 PM,46.4,44.6,93,30.18,-9999.0,NE,9.2,-,N/A,,Overcast,50,2012-12-09 17:43:00
1:00 PM,45.0,43.0,93,30.19,-9999.0,NE,8.1,-,N/A,,Overcast,40,2012-12-09 18:00:00
1:19 PM,44.6,39.2,81,30.17,-9999.0,NE,10.4,-,N/A,Rain,Light Rain,50,2012-12-09 18:19:00
2:00 PM,44.1,39.9,85,30.17,-9999.0,ENE,8.1,-,N/A,,Overcast,70,2012-12-09 19:00:00
3:00 PM,44.1,41.0,89,30.17,-9999.0,ENE,9.2,-,N/A,,Overcast,70,2012-12-09 20:00:00
4:27 PM,44.6,42.8,93,30.17,-9999.0,ENE,8.1,-,N/A,,Overcast,60,2012-12-09 21:27:00
4:38 PM,44.6,42.8,93,30.17,-9999.0,ENE,8.1,-,N/A,,Overcast,60,2012-12-09 21:38:00
5:00 PM,44.1,42.1,93,30.16,-9999.0,ENE,8.1,-,N/A,,Overcast,60,2012-12-09 22:00:00
6:00 PM,44.1,43.0,96,30.16,-9999.0,ENE,6.9,-,N/A,,Overcast,70,2012-12-09 23:00:00
7:00 PM,45.0,44.1,97,30.14,-9999.0,NE,6.9,-,N/A,,Overcast,50,2012-12-10 00:00:00
7:21 PM,44.6,44.6,100,30.13,-9999.0,NE,8.1,-,N/A,Rain,Light Rain,50,2012-12-10 00:21:00
9:00 PM,48.0,48.0,100,30.06,-9999.0,ENE,11.5,-,N/A,Rain,Light Rain,70,2012-12-10 02:00:00
10:00 PM,48.9,48.9,100,30.03,-9999.0,East,8.1,-,N/A,Rain,Light Rain,80,2012-12-10 03:00:00
11:00 PM,50.0,48.9,96,30.01,-9999.0,Calm,Calm,-,N/A,,Overcast,0,2012-12-10 04:00:00